Location: Eaton
(41.3139°N, 82.0207°W)
Time: 07:59:38
(UTC+00:00)

Cosmos 2285 Rocket - Pass Details

Date: 01 November 2021
Orbit: 970 x 1000 km, 74.0° (Epoch: 01 December)

Event Time Altitude Azimuth Distance (km) Brightness Sun altitude
Rises 11:18:41 0° 344° (NNW) 3,728 6.8 -8.3°
Reaches altitude 10° 11:21:21 10° 349° (N) 2,776 6.2 -7.8°
Maximum altitude 11:27:38 52° 66° (ENE) 1,227 5.0 -6.6°
Drops below altitude 10° 11:33:52 10° 142° (SE) 2,759 7.3 -5.5°
Sets 11:36:29 0° 147° (SSE) 3,703 7.9 -5.0°
